When you browse on this site, cookies collect data to enhance your experience and personalize the content and advertising you see.
Visit our Privacy Policy to learn more. By continuing to use the site, you agree to this use of cookies and data.
  • In United Kingdom
  • List of Countries
  • For 7 days
  • Water Temperature
  • Weather Map
  • Weather Widgets
  • user-avatar
    Login

    Hourly Weather Aberlady

    Today, 23 August, Friday

    Time Temperature Precipitation Wind Pressure Humidity
    00:00 +16°C° 0 mm 7 mps 757 mmHg 89%
    01:00 +15°C° 0 mm 7 mps 757 mmHg 89%
    02:00 +15°C° 0 mm 7 mps 757 mmHg 89%
    03:00 +15°C° 0 mm 6 mps 758 mmHg 89%
    04:00 +15°C° 0 mm 6 mps 758 mmHg 89%
    05:00 +14°C° 0 mm 6 mps 758 mmHg 89%
    06:00 +14°C° 0 mm 5 mps 758 mmHg 88%
    07:00 +15°C° 0 mm 6 mps 759 mmHg 85%
    08:00 +17°C° 0 mm 6 mps 759 mmHg 81%
    09:00 +18°C° 0 mm 7 mps 759 mmHg 77%
    10:00 +20°C° 0 mm 7 mps 759 mmHg 74%
    11:00 +21°C° 0 mm 7 mps 759 mmHg 70%
    12:00 +22°C° 0 mm 7 mps 759 mmHg 67%
    13:00 +22°C° 0 mm 6 mps 759 mmHg 68%
    14:00 +22°C° 0 mm 6 mps 759 mmHg 68%
    15:00 +22°C° 0 mm 6 mps 759 mmHg 69%
    16:00 +21°C° 0 mm 5 mps 759 mmHg 72%
    17:00 +20°C° 0 mm 5 mps 759 mmHg 75%
    18:00 +19°C° 0 mm 4 mps 759 mmHg 79%
    19:00 +18°C° 0 mm 4 mps 759 mmHg 83%
    20:00 +17°C° 0 mm 3 mps 759 mmHg 87%
    21:00 +16°C° 0 mm 3 mps 759 mmHg 91%
    22:00 +16°C° 0 mm 3 mps 759 mmHg 92%
    23:00 +15°C° 0 mm 2 mps 759 mmHg 92%

    Tomorrow, 24 August, Saturday

    Time Temperature Precipitation Wind Pressure Humidity
    00:00 +15°C° 0 mm 2 mps 759 mmHg 93%
    01:00 +15°C° 0 mm 2 mps 759 mmHg 93%
    02:00 +15°C° 0 mm 2 mps 758 mmHg 94%
    03:00 +15°C° 0 mm 2 mps 758 mmHg 94%
    04:00 +15°C° 0 mm 2 mps 758 mmHg 94%
    05:00 +15°C° 0 mm 2 mps 758 mmHg 94%
    06:00 +15°C° 0 mm 2 mps 758 mmHg 94%
    07:00 +16°C° 0 mm 2 mps 758 mmHg 88%
    08:00 +18°C° 0 mm 2 mps 758 mmHg 83%
    09:00 +19°C° 0 mm 2 mps 758 mmHg 77%
    10:00 +20°C° 0 mm 2 mps 758 mmHg 71%
    11:00 +23°C° 0 mm 2 mps 758 mmHg 65%
    12:00 +24°C° 0 mm 2 mps 758 mmHg 59%
    13:00 +24°C° 0 mm 2 mps 758 mmHg 58%
    14:00 +24°C° 0 mm 2 mps 758 mmHg 58%
    15:00 +24°C° 0 mm 2 mps 758 mmHg 58%
    16:00 +24°C° 0 mm 2 mps 757 mmHg 63%
    17:00 +23°C° 0 mm 2 mps 757 mmHg 67%
    18:00 +21°C° 0 mm 2 mps 757 mmHg 72%
    19:00 +20°C° 0 mm 2 mps 757 mmHg 75%
    20:00 +19°C° 0 mm 1 mps 757 mmHg 78%
    21:00 +18°C° 0 mm 1 mps 758 mmHg 81%
    22:00 +18°C° 0 mm 1 mps 757 mmHg 81%
    23:00 +18°C° 0 mm 1 mps 757 mmHg 81%

    Day after tomorrow, 25 August, Sunday

    Time Temperature Precipitation Wind Pressure Humidity
    00:00 +18°C° 0 mm 1 mps 757 mmHg 82%
    01:00 +18°C° 0 mm 1 mps 757 mmHg 82%
    02:00 +16°C° 0 mm 1 mps 757 mmHg 81%
    03:00 +16°C° 0 mm 1 mps 757 mmHg 81%
    04:00 +16°C° 0 mm 1 mps 757 mmHg 81%
    05:00 +18°C° 0 mm 1 mps 757 mmHg 81%
    06:00 +18°C° 0 mm 1 mps 757 mmHg 81%
    07:00 +19°C° 0 mm 1 mps 757 mmHg 78%
    08:00 +20°C° 0 mm 1 mps 758 mmHg 74%
    09:00 +22°C° 0 mm 1 mps 758 mmHg 71%
    10:00 +23°C° 0 mm 1 mps 758 mmHg 68%
    11:00 +24°C° 0 mm 2 mps 758 mmHg 65%
    12:00 +25°C° 0 mm 2 mps 758 mmHg 62%
    13:00 +25°C° 0 mm 2 mps 758 mmHg 62%
    14:00 +26°C° 0 mm 3 mps 758 mmHg 63%
    15:00 +26°C° 0 mm 3 mps 758 mmHg 63%
    16:00 +25°C° 0 mm 3 mps 758 mmHg 68%
    17:00 +24°C° 0 mm 3 mps 758 mmHg 73%
    18:00 +24°C° 0 mm 3 mps 757 mmHg 78%
    19:00 +21°C° 0 mm 2 mps 758 mmHg 81%
    20:00 +20°C° 0 mm 2 mps 758 mmHg 84%
    21:00 +19°C° 0 mm 2 mps 758 mmHg 87%
    22:00 +18°C° 0 mm 2 mps 758 mmHg 87%
    23:00 +19°C° 0 mm 1 mps 758 mmHg 88%

    26 August, Monday

    Time Temperature Precipitation Wind Pressure Humidity
    00:00 +19°C° 0 mm 1 mps 758 mmHg 88%
    01:00 +18°C° 0 mm 1 mps 757 mmHg 88%
    02:00 +18°C° 0 mm 1 mps 757 mmHg 88%
    03:00 +18°C° 0 mm 1 mps 757 mmHg 87%
    04:00 +18°C° 0 mm 1 mps 757 mmHg 88%
    05:00 +18°C° 0 mm 1 mps 757 mmHg 88%
    06:00 +18°C° 0 mm 1 mps 757 mmHg 89%
    07:00 +20°C° 0 mm 1 mps 757 mmHg 84%
    08:00 +21°C° 0 mm 1 mps 757 mmHg 80%
    09:00 +23°C° 0 mm 1 mps 757 mmHg 75%
    10:00 +24°C° 0 mm 1 mps 756 mmHg 72%
    11:00 +25°C° 0 mm 1 mps 756 mmHg 70%
    12:00 +26°C° 0 mm 2 mps 756 mmHg 67%
    13:00 +26°C° 0 mm 2 mps 756 mmHg 68%
    14:00 +26°C° 0 mm 2 mps 756 mmHg 68%
    15:00 +26°C° 0 mm 3 mps 756 mmHg 69%
    16:00 +25°C° 0 mm 3 mps 756 mmHg 72%
    17:00 +24°C° 0 mm 3 mps 755 mmHg 75%
    18:00 +22°C° 0 mm 3 mps 755 mmHg 79%
    19:00 +21°C° 0 mm 3 mps 755 mmHg 82%
    20:00 +19°C° 0 mm 3 mps 756 mmHg 86%
    21:00 +18°C° 0 mm 3 mps 756 mmHg 90%
    22:00 +17°C° 0 mm 3 mps 756 mmHg 90%
    23:00 +16°C° 0 mm 2 mps 756 mmHg 90%

    27 August, Tuesday

    Time Temperature Precipitation Wind Pressure Humidity
    00:00 +16°C° 0 mm 2 mps 756 mmHg 91%
    01:00 +15°C° 0 mm 2 mps 755 mmHg 89%
    02:00 +15°C° 0 mm 2 mps 755 mmHg 87%
    03:00 +15°C° 0 mm 2 mps 755 mmHg 86%
    04:00 +15°C° 0 mm 2 mps 755 mmHg 85%
    05:00 +15°C° 0 mm 1 mps 755 mmHg 84%
    06:00 +15°C° 0 mm 1 mps 755 mmHg 83%
    07:00 +16°C° 0 mm 1 mps 755 mmHg 78%
    08:00 +19°C° 0 mm 1 mps 755 mmHg 73%
    09:00 +20°C° 0 mm 1 mps 755 mmHg 68%
    10:00 +22°C° 0 mm 1 mps 754 mmHg 66%
    11:00 +23°C° 0 mm 1 mps 754 mmHg 64%
    12:00 +24°C° 0 mm 1 mps 754 mmHg 63%
    13:00 +24°C° 0.5 mm 2 mps 754 mmHg 66%
    14:00 +23°C° 0.5 mm 2 mps 753 mmHg 70%
    15:00 +23°C° 0.5 mm 2 mps 753 mmHg 74%
    16:00 +21°C° 0.5 mm 2 mps 753 mmHg 78%
    17:00 +20°C° 0.5 mm 2 mps 752 mmHg 82%
    18:00 +20°C° 0.5 mm 1 mps 752 mmHg 87%
    19:00 +18°C° 0 mm 2 mps 752 mmHg 87%
    20:00 +17°C° 0 mm 2 mps 752 mmHg 88%
    21:00 +16°C° 0 mm 3 mps 752 mmHg 89%
    22:00 +14°C° 0 mm 3 mps 752 mmHg 89%
    23:00 +14°C° 0 mm 3 mps 752 mmHg 89%

    28 August, Wednesday

    Time Temperature Precipitation Wind Pressure Humidity
    00:00 +14°C° 0 mm 3 mps 752 mmHg 88%
    01:00 +14°C° 0.2 mm 3 mps 752 mmHg 90%
    02:00 +14°C° 0.2 mm 3 mps 751 mmHg 93%
    03:00 +14°C° 0.2 mm 3 mps 751 mmHg 95%
    04:00 +14°C° 0.1 mm 3 mps 751 mmHg 94%
    05:00 +14°C° 0.1 mm 3 mps 751 mmHg 94%
    06:00 +15°C° 0.1 mm 2 mps 752 mmHg 94%
    07:00 +14°C° 0.2 mm 3 mps 752 mmHg 92%
    08:00 +14°C° 0.2 mm 3 mps 752 mmHg 91%
    09:00 +13°C° 0.2 mm 4 mps 752 mmHg 89%
    10:00 +14°C° 0 mm 4 mps 752 mmHg 81%
    11:00 +15°C° 0 mm 5 mps 753 mmHg 74%
    12:00 +16°C° 0 mm 6 mps 753 mmHg 66%
    13:00 +16°C° 0 mm 6 mps 753 mmHg 63%
    14:00 +16°C° 0 mm 6 mps 753 mmHg 61%
    15:00 +17°C° 0 mm 6 mps 753 mmHg 58%
    16:00 +16°C° 0 mm 5 mps 753 mmHg 62%
    17:00 +15°C° 0 mm 4 mps 754 mmHg 66%
    18:00 +14°C° 0 mm 4 mps 754 mmHg 70%
    19:00 +14°C° 0 mm 3 mps 754 mmHg 73%
    20:00 +13°C° 0 mm 3 mps 754 mmHg 75%
    21:00 +12°C° 0 mm 3 mps 755 mmHg 78%
    22:00 +12°C° 0 mm 3 mps 755 mmHg 82%
    23:00 +11°C° 0 mm 3 mps 755 mmHg 86%
    Show more